{"data":{"norad_id":61679,"epoch":"2026-05-25T02:52:21.883008Z","epoch_age_seconds":74860,"freshness":"FRESH","line1":"1 61679U 24193U   26145.11969772 -.00000708  00000+0 -11778-4 0  9992","line2":"2 61679  53.1609  96.3314 0001430  86.4479 273.6685 15.30188313 88227","mean_motion":15.30188313,"eccentricity":0.000143,"inclination_deg":53.1609,"raan_deg":96.3314,"arg_perigee_deg":86.4479,"mean_anomaly_deg":273.6685,"bstar":-1.1778e-5,"rev_number":8822,"period_min":94.106064447507,"perigee_km":474.26993058084,"apogee_km":476.22999925281,"semimajor_km":6853.3869649168,"source":"CELESTRAK","updated_at":"2026-05-25T13:38:19.437705Z"}}